[[{"header":{"parameterUnit":"m.s-1","parameterCategory":1,"la1":30.2991,"la2":30.254,"lo1":-89.0895,"lo2":-89.0444,"dy":0.0017,"dx":0.0017,"nx":28,"ny":28,"refTime":"2025-02-27T09:00:00:Z","depth":0,"parameterNumber":2,"parameterNumberName":"U-component_of_WINDS"},"data":[0,0,0,0,0,0,0,0,0,0,0,0,0,0,0,0,0,0,0,0,0,0,0,0,0,0,0,0,0,0,0,0,0,0,0,0,0,0,0,0,0,0,0,0,0,0,0,0,0,0,0,0,0,0,0,0,0,0,0.8147,0.8148,0,0.8274,0.8275,0.8277,0.8325,0.8325,0.8325,0.8324,0.8455,0.8459,0.8462,0,0,0,0,0,0,0,0,0,0,0,0,0,0.7946,0.795,0.8147,0.8148,0.815,0.8273,0.8275,0.8277,0.8325,0.8325,0.8325,0.8324,0.8454,0.8458,0.8463,0,0,0,0,0,0,0,0,0,0,0,0,0,0.8049,0.7951,0.8146,0.8189,0.8194,0.8273,0.8275,0.8277,0.8326,0.8325,0.8324,0.8324,0.8452,0.8458,0.8463,0.851,0,0,0.8481,0.8483,0,0,0,0,0,0,0,0,0.8043,0.8056,0.8181,0.8186,0.8192,0.8283,0.8253,0.8355,0.8326,0.8276,0.8324,0.8324,0.8398,0.8408,0.8433,0.8516,0.8522,0.8481,0.8485,0.8487,0.8489,0,0,0,0,0,0,0,0.8036,0.8051,0.8197,0.8183,0.8189,0.8202,0.8216,0.8272,0.8338,0.828,0.8284,0.8298,0.8401,0.8428,0.8437,0.8523,0.8481,0.8486,0.849,0.8492,0.865,0.8651,0,0,0,0,0,0,0.8022,0.8045,0.8193,0.8201,0.8115,0.8206,0.8221,0.8254,0.8338,0.835,0.8298,0.83,0.8418,0.843,0.8442,0.8501,0.8487,0.8493,0.8496,0.8649,0.865,0.8651,0,0,0,0,0,0,0.8017,0.8034,0.8188,0.8124,0.8144,0.821,0.8246,0.8257,0.8284,0.8352,0.8364,0.8313,0.8418,0.8434,0.8492,0.8507,0.8495,0.85,0.8648,0.865,0.8651,0.8621,0,0,0,0,0,0,0.8011,0.8033,0.8051,0.8124,0.8148,0.8236,0.8247,0.826,0.8294,0.8297,0.8369,0.8381,0.8419,0.8484,0.8498,0.8514,0.8505,0.8648,0.8649,0.865,0.8621,0.8621,0.8621,0,0,0,0,0,0.8004,0.8038,0.8052,0.8069,0.8172,0.8237,0.825,0.8294,0.8295,0.8313,0.8357,0.8379,0.8503,0.8489,0.8506,0.8524,0.8647,0.8649,0.865,0.8621,0.8621,0.8621,0,0,0,0,0,0,0.7965,0.8048,0.8064,0.8123,0.8172,0.8245,0.827,0.8292,0.8343,0.8344,0.8395,0.8411,0.8466,0.8501,0.8484,0.8573,0.8576,0.8581,0.8548,0.8549,0.8549,0.8539,0.851,0,0,0,0,0,0.7962,0.8008,0.8079,0.8123,0.8147,0.8204,0.8234,0.8263,0.8317,0.8338,0.8386,0.8437,0.8488,0.852,0.8571,0.8626,0.8643,0.8647,0.8647,0.8646,0.865,0.8682,0.8685,0.8657,0.8657,0.8657,0,0,0.7959,0.801,0.8036,0.8117,0.8159,0.8205,0.8222,0.827,0.8305,0.8346,0.8404,0.8441,0.8502,0.8559,0.8586,0.859,0.8661,0.8649,0.8648,0.8652,0.8684,0.8686,0.8689,0.8658,0.8658,0.8657,0,0,0.7976,0.802,0.8061,0.8103,0.8166,0.8204,0.8214,0.8283,0.8309,0.8369,0.84,0.8442,0.8528,0.857,0.8603,0.8635,0.8657,0.865,0.865,0.868,0.8682,0.8685,0.8696,0.8699,0.8654,0.8654,0.8654,0,0.7964,0.8035,0.808,0.8127,0.8161,0.82,0.8243,0.8281,0.8357,0.838,0.8383,0.8491,0.8535,0.8602,0.861,0.8635,0.8648,0.8642,0.8678,0.8681,0.8684,0.8695,0.8699,0.8652,0.8653,0.8653,0.8653,0,0.8017,0.8065,0.8091,0.8164,0.8201,0.8246,0.8298,0.833,0.8356,0.8393,0.8452,0.8506,0.8568,0.8586,0.8612,0.8657,0.8657,0.8668,0.8672,0.8684,0.8696,0.8701,0.8651,0.8651,0.8651,0.8652,0,0,0.8013,0.8109,0.8118,0.8151,0.8224,0.8262,0.8308,0.8368,0.8395,0.8446,0.8486,0.8558,0.8569,0.8606,0.8636,0.8663,0.8685,0.8671,0.8673,0.8671,0.8738,0.8729,0.8733,0.8699,0.87,0.8701,0.8733,0,0.8039,0.8123,0.8165,0.8231,0.8276,0.8314,0.8354,0.8402,0.8438,0.8482,0.8522,0.8572,0.8582,0.8605,0.8633,0.8676,0.8699,0.8674,0.8737,0.8739,0.872,0.8739,0.873,0.8757,0.8738,0.8738,0.8739,0,0.8082,0.8132,0.8202,0.8269,0.829,0.8325,0.8384,0.8425,0.8481,0.8505,0.8546,0.8576,0.8626,0.8626,0.8695,0.8678,0.8706,0.8731,0.8733,0.874,0.8739,0.8747,0.8767,0.8771,0.8747,0.8746,0.8745,0,0.8071,0.8157,0.821,0.8238,0.8317,0.8341,0.8375,0.843,0.8464,0.8515,0.8537,0.8593,0.8624,0.8666,0.871,0.8707,0.8775,0.8779,0.8797,0.8796,0.881,0.8808,0.8834,0.8828,0.8828,0.8828,0.8827,0,0.8097,0.8138,0.8207,0.8239,0.8287,0.8334,0.838,0.8417,0.8466,0.8506,0.8542,0.8579,0.8635,0.8679,0.8714,0.8766,0.878,0.8801,0.881,0.8798,0.8795,0.8817,0.8816,0.8829,0.8828,0.8828,0.8828,0,0.8093,0.8141,0.8201,0.8271,0.829,0.8322,0.8382,0.8415,0.8452,0.8503,0.8518,0.8577,0.863,0.8679,0.875,0.8773,0.8826,0.8837,0.8807,0.8812,0.8827,0.8824,0.8867,0.8875,0.8863,0.8863,0.8863,0,0.8106,0.8139,0.8212,0.8242,0.8275,0.8323,0.8357,0.8405,0.8439,0.8505,0.853,0.8586,0.8634,0.8718,0.8767,0.8822,0.8835,0.8846,0.8843,0.883,0.8835,0.8832,0.8836,0.8846,0.8845,0.8845,0.8845,0,0.8124,0.8146,0.8194,0.825,0.8289,0.8336,0.8384,0.8406,0.8463,0.8499,0.8555,0.8591,0.8664,0.872,0.878,0.8815,0.884,0.8846,0.8853,0.8841,0.8822,0.8832,0.8806,0.8845,0.8845,0.8845,0.8845,0.8845,0.8129,0.816,0.8216,0.8268,0.8309,0.8353,0.8387,0.8429,0.8476,0.8539,0.8564,0.862,0.8675,0.8759,0.8794,0.8839,0.8843,0.8853,0.8856,0.8858,0.8855,0.8815,0.885,0.885,0.885,0.885,0.885,0,0.8149,0.8187,0.8234,0.83,0.834,0.836,0.8413,0.8446,0.8495,0.8544,0.859,0.8654,0.8708,0.8761,0.8818,0.8843,0.8856,0.8856,0.8855,0.8863,0.8848,0.8836,0.8845,0.8845,0.8845,0.8845,0.8845,0.8845,0.8164,0.8217,0.8245,0.8319,0.8357,0.8412,0.8441,0.8481,0.852,0.859,0.8634,0.8669,0.872,0.878,0.8831,0.8845,0.8864,0.8862,0.8879,0.8864,0.8864,0.8864,0.8853,0.8865,0.8865,0.889,0.889,0.889]},{"header":{"parameterUnit":"m.s-1","parameterCategory":1,"la1":30.2991,"la2":30.254,"lo1":-89.0895,"lo2":-89.0444,"dy":0.0017,"dx":0.0017,"nx":28,"ny":28,"refTime":"2025-02-27T09:00:00:Z","depth":0,"parameterNumber":3,"parameterNumberName":"V-component_of_WINDS"},"data":[0,0,0,0,0,0,0,0,0,0,0,0,0,0,0,0,0,0,0,0,0,0,0,0,0,0,0,0,0,0,0,0,0,0,0,0,0,0,0,0,0,0,0,0,0,0,0,0,0,0,0,0,0,0,0,0,0,0,1.8082,1.8082,0,1.804,1.8039,1.8039,1.8029,1.803,1.803,1.803,1.7982,1.7981,1.7979,0,0,0,0,0,0,0,0,0,0,0,0,0,1.8151,1.815,1.8082,1.8082,1.8081,1.804,1.8039,1.8039,1.8029,1.803,1.803,1.8031,1.7983,1.7981,1.7979,0,0,0,0,0,0,0,0,0,0,0,0,0,1.8116,1.815,1.8083,1.8072,1.8071,1.804,1.8039,1.8039,1.8029,1.803,1.803,1.8031,1.7983,1.7981,1.7979,1.7954,0,0,1.7971,1.797,0,0,0,0,0,0,0,0,1.8118,1.8114,1.8074,1.8073,1.8071,1.8041,1.8046,1.801,1.8029,1.8045,1.803,1.8031,1.8001,1.7997,1.7988,1.7952,1.795,1.7971,1.797,1.7969,1.7968,0,0,0,0,0,0,0,1.8121,1.8116,1.8065,1.8073,1.8072,1.8068,1.8063,1.8039,1.802,1.8043,1.8043,1.8038,1.8,1.799,1.7987,1.7949,1.7971,1.7969,1.7968,1.7967,1.7891,1.7891,0,0,0,0,0,0,1.8126,1.8118,1.8067,1.8064,1.8096,1.8066,1.8061,1.805,1.8021,1.8017,1.8038,1.8038,1.7994,1.7989,1.7985,1.7955,1.7969,1.7966,1.7965,1.7892,1.7891,1.789,0,0,0,0,0,0,1.8127,1.8121,1.8068,1.8091,1.8084,1.8065,1.8052,1.8049,1.8039,1.8017,1.8013,1.8031,1.7994,1.7988,1.7962,1.7953,1.7965,1.7963,1.7892,1.7892,1.7891,1.7894,0,0,0,0,0,0,1.8129,1.8122,1.8113,1.8091,1.8083,1.8048,1.8051,1.8047,1.8035,1.8035,1.8009,1.8006,1.7994,1.7966,1.796,1.795,1.7961,1.7893,1.7892,1.7891,1.7895,1.7893,1.7892,0,0,0,0,0,1.8132,1.8115,1.8113,1.8107,1.8072,1.8047,1.8043,1.8031,1.8035,1.8025,1.8011,1.8006,1.7955,1.7963,1.7957,1.7946,1.7894,1.7892,1.7891,1.7895,1.7894,1.7892,0,0,0,0,0,0,1.8135,1.8112,1.8109,1.8085,1.8069,1.8046,1.8034,1.803,1.8011,1.8011,1.7996,1.799,1.7965,1.7953,1.7963,1.792,1.7924,1.7922,1.793,1.7928,1.7927,1.793,1.7959,0,0,0,0,0,1.8134,1.8117,1.8097,1.8077,1.8069,1.8053,1.8042,1.8035,1.8016,1.8009,1.7993,1.7974,1.7953,1.794,1.792,1.7893,1.7887,1.7882,1.7881,1.788,1.7878,1.7862,1.786,1.7886,1.7886,1.7886,0,0,1.813,1.8115,1.8105,1.8078,1.8064,1.8046,1.8047,1.8028,1.8014,1.8005,1.7981,1.7968,1.7945,1.7919,1.7907,1.7908,1.7869,1.7878,1.7878,1.7876,1.7861,1.7858,1.7856,1.7885,1.7885,1.7886,0,0,1.8113,1.81,1.8083,1.8069,1.8049,1.8039,1.8034,1.8012,1.8004,1.7979,1.7972,1.7955,1.792,1.7905,1.7892,1.787,1.7865,1.7864,1.7857,1.7842,1.784,1.7838,1.783,1.7828,1.7861,1.7861,1.7861,0,1.811,1.8084,1.8074,1.8055,1.8043,1.8036,1.8018,1.8005,1.7978,1.797,1.7972,1.7928,1.7913,1.7883,1.7877,1.7867,1.7861,1.7866,1.7842,1.784,1.7838,1.783,1.7827,1.7861,1.7861,1.7861,1.7861,0,1.8081,1.8063,1.8051,1.8028,1.8014,1.7996,1.7982,1.7969,1.7963,1.7952,1.7926,1.7907,1.7884,1.7876,1.7869,1.7844,1.7846,1.7845,1.7849,1.7835,1.7828,1.7825,1.7861,1.7861,1.7861,1.7861,0,0,1.8065,1.8037,1.8033,1.8022,1.8,1.7985,1.7966,1.7944,1.7933,1.7915,1.7898,1.7869,1.7869,1.7855,1.7846,1.7833,1.7816,1.7833,1.7833,1.7831,1.7788,1.7789,1.7785,1.7813,1.7812,1.7812,1.779,0,1.8045,1.8013,1.8003,1.7975,1.7958,1.7951,1.7935,1.7918,1.7907,1.789,1.7877,1.7857,1.7858,1.7849,1.7836,1.7821,1.7808,1.7823,1.7796,1.7795,1.7802,1.7781,1.7782,1.7762,1.7787,1.7786,1.7786,0,1.8018,1.8002,1.7973,1.7953,1.7945,1.7931,1.791,1.7894,1.7875,1.7868,1.7852,1.7845,1.7823,1.7828,1.7798,1.7808,1.7797,1.7788,1.7787,1.7783,1.779,1.7777,1.7755,1.7752,1.7781,1.7781,1.7782,0,1.801,1.798,1.7959,1.795,1.7926,1.7916,1.7905,1.7887,1.7874,1.7856,1.7847,1.7826,1.7814,1.7797,1.7783,1.7788,1.7754,1.7757,1.7746,1.7746,1.7739,1.7739,1.7714,1.7732,1.7732,1.7732,1.7732,0,1.7989,1.7971,1.7955,1.7942,1.7921,1.791,1.789,1.7878,1.7862,1.7846,1.7837,1.7822,1.7805,1.7787,1.7776,1.7752,1.7747,1.7739,1.7737,1.774,1.7741,1.7732,1.7733,1.7731,1.7731,1.7731,1.7732,0,1.7976,1.7964,1.794,1.792,1.7915,1.7901,1.7883,1.7869,1.7858,1.7837,1.7832,1.7814,1.7792,1.7777,1.7748,1.7741,1.7715,1.7713,1.7722,1.7721,1.771,1.7711,1.7678,1.7673,1.7694,1.7694,1.7694,0,1.7963,1.795,1.7928,1.7918,1.7908,1.789,1.7878,1.7866,1.7853,1.7831,1.7819,1.7798,1.7779,1.7745,1.7728,1.7706,1.7703,1.7693,1.7699,1.7703,1.7702,1.7703,1.7701,1.7692,1.7691,1.7691,1.7691,0,1.7942,1.7937,1.7921,1.7902,1.7888,1.7873,1.7857,1.7848,1.7833,1.7819,1.7798,1.7784,1.7755,1.7733,1.771,1.7697,1.7691,1.769,1.7686,1.7689,1.7695,1.7691,1.7719,1.769,1.769,1.769,1.769,1.769,1.7928,1.7916,1.79,1.7881,1.7869,1.7854,1.7841,1.7829,1.7811,1.7788,1.7782,1.776,1.774,1.7709,1.7695,1.7677,1.7677,1.7672,1.767,1.7669,1.7669,1.7698,1.7672,1.7672,1.7672,1.7672,1.7672,0,1.7906,1.7896,1.7879,1.7859,1.7844,1.7842,1.7824,1.7812,1.7793,1.7776,1.7759,1.7734,1.7713,1.7695,1.7672,1.7661,1.7657,1.7655,1.7656,1.7653,1.767,1.7675,1.7658,1.7658,1.7658,1.7658,1.7658,1.7658,1.7893,1.7873,1.7866,1.7838,1.7827,1.7807,1.7797,1.7783,1.777,1.7743,1.7726,1.7715,1.7698,1.7674,1.7654,1.7649,1.7641,1.764,1.7634,1.765,1.7652,1.7653,1.7658,1.7638,1.7638,1.7618,1.7618,1.7618]}]]